Location: Alexandria
(38.8050°N, 77.0470°W)
Time: 20:03:13
(UTC-04:00)

N. Korean satellite - Visible Passes

Search period start: 18 October 2017 00:00
Search period end: 28 October 2017 00:00
Orbit: 459 x 517 km, 97.2° (Epoch: 18 October)

Date Brightness Start Highest point End Pass type
(mag) Time Alt. Az. Time Alt. Az. Time Alt. Az.
18 Oct 7.1 19:24:21 10° S 19:27:51 62° W 19:31:20 10° NNW visible
19 Oct 6.5 19:01:04 10° SSE 19:04:33 59° ENE 19:08:00 10° N visible
20 Oct 9.9 20:12:54 10° SW 20:14:52 14° W 20:16:50 10° WNW visible
21 Oct 8.7 19:48:20 10° SSW 19:51:24 28° W 19:54:28 10° NW visible
22 Oct 7.1 19:24:33 10° S 19:28:01 60° W 19:31:28 10° NNW visible
23 Oct 10.5 06:54:58 10° ENE 06:56:04 11° E 06:57:10 10° ESE visible
23 Oct 6.5 19:01:14 10° SSE 19:04:41 60° ENE 19:08:07 10° N visible
24 Oct 7.4 18:38:24 10° SE 18:41:26 28° ENE 18:44:26 10° NNE visible
24 Oct 9.9 20:13:07 10° SW 20:14:59 14° W 20:16:53 10° WNW visible
25 Oct 8.7 19:48:30 10° SSW 19:51:31 27° W 19:54:33 10° NW visible
26 Oct 7.1 19:24:41 10° S 19:28:07 59° W 19:31:33 10° NNW visible
27 Oct 10.4 06:54:56 10° ENE 06:56:11 11° E 06:57:27 10° ESE visible
27 Oct 6.4 19:01:21 10° SSE 19:04:47 61° ENE 19:08:11 10° N visible
